Location: Newark
(48.0000°N, 67.0000°E)
Time: 14:39:53
(UTC+00:00)

A-11 Canister half - Pass Details

Date: 26 February 2020
Orbit: 1516 x 1683 km, 47.2° (Epoch: 08 April)

Event Time Altitude Azimuth Distance (km) Brightness Sun altitude
Rises 16:32:09 0° 290° (WNW) 4,841 12.7 -33.6°
Reaches altitude 10° 16:35:29 10° 284° (WNW) 3,829 11.8 -34.1°
Maximum altitude 16:44:22 43° 218° (SW) 2,093 9.6 -35.4°
Enters shadow 16:45:26 41° 202° (SSW) 2,122 9.5 -35.6°
